Date,TemperatureHighF,TemperatureAvgF,TemperatureLowF,DewpointHighF,DewpointAvgF,DewpointLowF,HumidityHigh,HumidityAvg,HumidityLow,PressureMaxIn,PressureMinIn,WindSpeedMaxMPH,WindSpeedAvgMPH,GustSpeedMaxMPH,PrecipitationSumIn
2013-1-1,60.1,47.6,38.2,36.2,30.4,18.4,83,56,21,30.22,30.07,7,0,7,0.00
2013-1-2,64.3,49.3,39.1,30.4,25.1,15.6,60,42,18,30.09,30.00,9,0,9,0.00
2013-1-3,69.1,51.2,39.2,29.2,23.5,16.7,57,38,14,30.13,29.99,9,0,9,0.00
2013-1-4,66.0,51.2,38.6,26.4,18.0,3.1,51,30,9,30.25,30.10,6,0,6,0.00
2013-1-5,65.5,49.2,37.2,36.2,24.5,13.2,66,42,14,30.28,30.12,7,0,7,0.00
2013-1-6,55.9,48.2,42.6,46.4,41.1,32.0,91,77,53,30.17,29.98,11,0,11,0.14
2013-1-7,68.3,52.4,40.3,39.8,31.4,20.9,90,50,18,30.05,29.92,19,0,19,0.00
2013-1-8,72.1,55.0,43.2,43.3,32.2,21.1,68,46,15,30.07,29.94,3,0,7,0.00
2013-1-9,69.4,55.7,46.4,49.1,40.2,32.7,89,59,28,30.07,29.91,5,0,5,0.00
2013-1-10,56.9,50.4,41.6,47.3,31.3,13.8,90,53,19,30.03,29.83,18,2,19,0.34
2013-1-11,54.2,45.6,36.6,26.8,19.2,13.5,60,36,21,30.17,30.02,18,2,18,0.00
2013-1-12,55.0,43.3,32.9,25.4,19.4,9.9,64,41,17,30.14,30.02,10,0,10,0.00
2013-1-13,55.3,43.0,31.5,25.0,18.9,8.7,65,41,17,30.17,30.03,10,0,10,0.00
2013-1-14,55.0,41.7,29.7,18.2,10.2,0.4,49,30,11,30.35,30.10,9,0,9,0.00
2013-1-15,58.4,43.9,33.2,29.5,17.2,5.1,62,38,13,30.45,30.32,8,0,8,0.00
2013-1-16,68.1,50.6,38.5,32.0,25.6,20.3,59,40,17,30.34,30.06,7,0,7,0.00
2013-1-17,76.1,57.1,42.9,29.0,23.4,15.2,49,30,11,30.12,30.00,5,0,5,0.00
2013-1-18,76.8,57.6,45.7,25.4,21.2,14.8,38,27,10,30.10,29.93,10,0,10,0.00
2013-1-19,77.6,62.8,51.6,24.9,20.7,4.7,35,22,8,30.13,29.93,6,0,7,0.00
2013-1-20,77.9,66.3,55.7,22.7,19.5,7.2,27,17,7,30.06,29.88,6,0,6,0.00
2013-1-21,80.3,67.5,60.9,24.2,17.2,2.9,22,15,5,29.99,29.84,6,0,6,0.00
2013-1-22,79.8,67.6,62.0,27.1,18.6,5.5,24,16,6,30.01,29.87,9,0,9,0.00
2013-1-23,76.0,67.9,64.7,31.8,28.1,25.2,24,22,18,30.02,29.86,9,0,9,0.00
2013-1-24,67.1,64.5,59.3,53.3,37.1,24.8,80,43,23,30.14,29.96,3,0,3,0.00
2013-1-25,59.3,59.3,59.3,53.1,53.1,53.1,80,80,80,30.07,29.87,0,0,0,0.00
2013-1-26,68.8,61.0,59.0,59.8,53.8,51.4,92,77,62,29.90,29.76,11,0,11,0.00
2013-1-27,60.1,55.7,50.1,52.2,46.6,36.3,93,72,59,29.95,29.85,13,1,13,0.00
2013-1-28,59.5,52.9,50.1,38.4,28.0,17.2,64,41,20,30.11,29.92,14,2,14,0.00
2013-1-29,59.9,53.1,49.2,38.4,29.8,19.0,60,42,29,30.18,30.07,9,1,9,0.00
2013-1-30,69.1,57.3,51.1,42.4,37.8,33.0,64,49,28,30.28,30.13,10,0,10,0.00
2013-1-31,77.2,63.0,57.3,38.9,37.2,31.8,49,40,20,30.13,29.97,6,0,6,0.00
2013-2-1,75.4,64.7,59.0,47.0,40.2,32.7,53,41,22,30.08,29.96,12,0,12,0.00
2013-2-2,74.4,66.2,62.1,46.1,43.3,35.0,53,45,26,30.12,29.98,5,0,5,0.00
2013-2-3,77.2,68.0,62.1,45.5,43.1,31.4,51,42,19,30.03,29.85,11,0,11,0.00
2013-2-4,72.3,64.2,58.3,51.0,45.7,37.2,66,52,37,29.99,29.86,9,0,9,0.00
2013-2-5,60.9,57.7,53.5,49.2,48.0,46.0,80,70,64,30.01,29.89,8,0,8,0.00
2013-2-6,63.9,55.8,53.5,47.5,46.2,43.0,80,71,50,30.03,29.91,8,0,8,0.00
2013-2-7,61.8,55.2,53.2,48.2,45.6,44.1,76,70,59,30.06,29.86,10,1,10,0.00
2013-2-8,54.2,50.0,43.9,45.2,39.9,34.6,75,69,50,29.92,29.76,15,3,15,0.08
2013-2-9,57.5,49.1,43.9,37.8,34.9,29.0,75,59,35,30.04,29.83,9,3,9,0.00
2013-2-10,56.0,50.4,43.5,39.7,36.2,33.3,79,59,50,30.05,29.95,7,0,9,0.00
2013-2-11,63.1,47.5,36.3,39.8,32.2,7.0,89,60,12,30.20,30.02,14,0,14,0.00
2013-2-12,66.4,49.3,36.0,36.0,28.2,16.9,77,50,16,30.32,30.19,4,0,11,0.00
2013-2-13,71.8,53.3,39.1,37.8,30.8,23.1,69,47,16,30.24,30.10,8,0,8,0.00
2013-2-15,79.9,65.5,55.0,28.6,23.8,19.2,30,21,11,30.13,30.07,5,0,5,0.00
2013-2-16,82.4,62.7,48.0,29.2,20.0,11.3,40,22,7,30.10,29.86,11,0,11,0.00
2013-2-17,71.1,56.4,44.1,46.6,34.8,22.3,83,47,23,29.94,29.81,9,0,9,0.00
2013-2-18,66.3,54.7,50.2,46.1,43.8,40.4,82,68,39,30.01,29.88,7,0,7,0.00
2013-2-19,51.6,49.5,44.1,43.8,40.0,37.3,84,70,60,29.91,29.64,9,0,9,0.24
2013-2-20,63.4,49.5,38.6,39.9,28.0,16.0,86,48,19,29.94,29.62,18,2,18,0.00
2013-2-21,62.9,50.6,40.6,39.1,34.4,25.2,76,55,28,30.04,29.91,11,1,11,0.00
2013-2-22,67.6,51.2,38.0,36.0,30.8,25.1,74,49,22,30.16,30.04,14,0,14,0.00
2013-2-23,66.0,52.6,39.8,44.6,36.5,25.6,79,57,29,30.10,29.87,20,1,20,0.00
2013-2-24,68.1,53.2,40.5,43.6,27.8,15.1,82,45,14,30.14,29.90,19,1,19,0.00
2013-2-25,70.9,52.8,39.2,32.7,22.6,9.8,64,35,11,30.19,30.01,10,0,10,0.00
2013-2-26,74.9,54.7,38.6,34.4,28.5,18.0,68,42,13,30.05,29.92,9,0,9,0.00
2013-2-27,77.0,58.4,42.6,29.5,21.2,14.0,52,27,10,30.20,30.03,10,0,10,0.00
2013-2-28,80.1,60.4,45.2,27.2,19.2,11.5,43,23,8,30.26,30.16,9,0,9,0.00
2013-3-1,87.4,66.4,49.4,31.0,23.4,17.5,44,22,8,30.23,30.07,11,0,11,0.00
2013-3-2,85.3,66.1,52.2,34.5,27.9,21.3,44,26,10,30.13,29.98,9,0,9,0.00
2013-3-3,73.3,61.1,53.5,48.8,40.2,26.4,81,48,26,30.00,29.88,10,0,10,0.00
2013-3-4,71.8,58.4,50.2,50.7,47.8,45.2,83,70,40,30.04,29.91,7,0,7,0.00
2013-3-5,66.8,54.9,49.4,49.7,47.7,44.8,88,77,53,30.06,29.95,11,0,11,0.00
2013-3-6,63.7,54.9,49.6,46.2,42.9,38.3,80,65,41,30.09,29.93,11,0,11,0.00
2013-3-7,60.1,54.0,50.8,50.0,44.9,39.0,89,73,46,29.95,29.76,9,0,9,0.06
2013-3-8,56.2,49.6,43.3,45.5,42.0,37.2,88,75,52,29.97,29.70,12,0,12,0.67
2013-3-9,66.3,54.1,43.6,48.8,41.8,36.1,87,66,35,30.16,29.96,10,1,10,0.00
2013-3-10,72.7,57.1,41.9,47.5,37.7,26.2,87,54,19,30.22,30.09,11,0,11,0.01
2013-3-11,80.3,59.2,44.1,45.3,36.6,24.6,71,48,14,30.13,29.99,9,0,9,0.00
2013-3-12,82.8,62.5,45.8,46.6,39.1,30.1,76,47,18,30.00,29.93,7,0,7,0.00
2013-3-13,89.5,67.6,51.7,45.2,38.7,30.6,61,39,14,30.02,29.93,10,0,10,0.00
2013-3-14,88.4,66.8,50.2,50.3,44.8,35.2,83,51,16,29.99,29.91,10,0,10,0.00
2013-3-15,80.7,63.1,51.7,54.6,49.9,45.7,87,65,30,29.93,29.85,9,0,9,0.00
2013-3-16,72.8,57.9,52.0,52.8,49.3,45.0,91,75,39,29.89,29.80,9,0,9,0.00
2013-3-17,72.5,58.5,51.1,51.9,48.7,46.5,87,72,44,29.92,29.83,11,1,11,0.00
2013-3-18,67.9,56.6,52.3,51.1,48.8,45.8,85,76,51,30.02,29.87,9,0,11,0.00
2013-3-19,71.5,57.0,48.0,53.2,48.2,44.3,90,74,47,30.06,29.97,10,0,10,0.00
2013-3-20,71.1,59.8,51.4,54.5,49.6,47.0,88,71,44,30.02,29.86,10,0,10,0.00
2013-3-21,75.4,60.0,49.8,50.5,47.7,45.0,87,66,39,29.87,29.72,6,0,10,0.00
2013-3-22,73.2,59.3,52.5,51.3,49.0,45.8,86,71,39,29.83,29.69,11,0,11,0.00
2013-3-23,76.5,59.2,46.4,53.2,47.0,40.5,90,68,29,29.93,29.81,10,0,10,0.01
2013-3-24,80.1,61.3,47.3,54.4,46.1,29.9,90,63,18,29.94,29.81,13,0,13,0.00
2013-3-25,80.3,62.6,48.5,50.9,46.4,41.6,84,59,27,29.88,29.79,9,0,9,0.00
2013-3-26,75.6,60.2,50.4,54.9,48.9,44.2,89,69,35,29.89,29.79,12,0,12,0.00
2013-3-27,74.4,60.0,52.6,51.1,49.2,45.4,86,70,37,29.97,29.81,11,0,11,0.00
2013-3-28,78.5,61.7,52.9,53.0,50.2,47.3,86,69,35,30.00,29.92,14,0,14,0.00
2013-3-29,77.7,60.9,50.7,57.1,50.7,46.8,91,72,40,30.05,29.94,6,1,10,0.00
2013-3-30,76.8,61.9,53.6,53.9,50.0,43.5,88,68,35,30.05,29.94,12,1,12,0.00
2013-3-31,67.3,58.8,53.6,55.9,51.6,48.1,84,77,58,30.06,29.99,11,0,11,0.02
2013-4-1,69.8,58.0,49.9,51.9,48.9,44.8,89,73,46,30.10,29.99,16,1,16,0.00
2013-4-2,74.9,60.3,51.0,52.1,49.1,45.4,88,69,41,30.03,29.90,12,0,12,0.00
2013-4-3,80.5,63.0,49.8,56.8,49.8,43.9,89,66,29,30.01,29.90,9,0,10,0.00
2013-4-4,76.5,62.7,55.0,54.2,51.9,49.4,87,70,42,30.04,29.92,10,0,10,0.00
2013-4-5,74.6,62.5,56.3,54.5,52.3,49.4,86,71,47,30.00,29.91,10,1,11,0.00
2013-4-6,74.0,62.3,55.4,54.1,51.0,48.8,86,69,44,30.00,29.87,13,1,13,0.00
2013-4-7,77.0,61.4,51.6,55.2,50.4,47.5,88,69,42,29.89,29.71,10,0,10,0.00
2013-4-8,68.9,60.8,54.1,51.9,38.3,22.6,84,50,22,29.73,29.55,24,3,24,0.00
2013-4-9,78.5,63.8,49.1,33.3,25.2,11.1,42,25,8,29.89,29.71,19,2,19,0.00
2013-4-10,82.6,66.4,49.8,39.5,31.1,18.8,60,31,11,30.00,29.88,13,1,13,0.00
2013-4-11,80.3,64.6,50.1,50.2,40.4,29.4,77,45,17,29.88,29.69,12,1,12,0.00
2013-4-12,76.5,61.9,54.8,51.9,49.8,48.4,81,67,40,29.79,29.67,13,1,13,0.00
2013-4-13,69.3,59.2,53.2,53.3,50.9,47.3,85,75,53,29.83,29.74,11,0,11,0.00
2013-4-14,64.5,56.7,53.2,50.3,48.7,47.5,84,75,55,29.80,29.74,8,0,8,0.00
2013-4-15,65.2,57.0,52.6,53.7,48.9,43.2,90,75,57,29.81,29.74,11,1,11,0.09
2013-4-16,70.6,59.2,48.2,46.0,29.9,12.5,80,41,12,29.90,29.77,23,2,23,0.00
2013-4-17,75.6,61.3,49.4,29.5,20.5,6.0,40,23,7,30.04,29.90,16,2,16,0.00
2013-4-18,81.1,64.4,47.4,30.4,21.2,12.5,44,22,9,30.13,30.01,13,1,13,0.00
2013-4-19,86.7,67.5,49.2,39.1,24.4,12.5,45,24,7,30.08,29.85,13,1,13,0.00
2013-4-20,89.9,70.4,51.3,46.7,38.9,27.1,66,35,12,29.86,29.77,11,1,11,0.00
2013-4-21,85.9,67.9,53.8,53.8,46.5,38.3,83,51,22,29.90,29.81,9,1,9,0.00
2013-4-22,78.5,63.5,56.7,54.1,51.1,43.0,84,67,31,29.91,29.79,12,1,12,0.00
2013-4-23,78.5,63.0,55.9,51.5,49.1,42.9,84,63,30,29.88,29.75,10,1,10,0.00
2013-4-24,61.5,58.4,56.0,52.5,51.0,48.7,84,76,70,29.90,29.78,9,0,9,0.00
2013-4-25,74.7,62.1,54.8,49.2,46.9,42.0,76,60,31,30.03,29.88,14,1,14,0.00
2013-4-26,79.6,63.6,50.4,52.3,47.1,43.9,86,59,31,30.07,30.01,11,1,11,0.00
2013-4-27,80.5,65.8,51.3,54.2,50.2,45.6,84,60,35,30.05,29.90,9,1,9,0.00
2013-4-28,84.0,65.6,54.8,57.5,52.7,49.1,88,66,36,29.91,29.76,10,0,10,0.00
2013-4-29,79.6,64.7,57.0,56.5,53.4,50.9,87,69,41,29.81,29.67,11,1,11,0.00
2013-4-30,72.0,61.7,56.7,53.2,51.6,50.3,82,70,49,29.80,29.70,12,1,12,0.00
2013-5-1,79.8,64.8,57.3,53.8,52.0,49.4,81,65,36,30.01,29.79,10,0,10,0.00
2013-5-2,94.3,73.0,51.9,59.3,36.9,2.6,90,42,5,30.03,29.86,13,1,13,0.00
2013-5-3,96.1,76.9,58.1,31.4,21.1,8.5,29,14,4,29.88,29.63,13,1,13,0.00
2013-5-4,79.0,66.1,55.4,56.3,48.1,30.7,83,55,27,29.72,29.59,12,1,12,0.00
2013-5-5,67.4,60.6,56.3,51.3,49.0,46.8,81,66,48,29.86,29.70,17,2,17,0.00
2013-5-6,66.1,58.9,54.7,58.0,52.5,48.9,91,80,57,29.94,29.80,10,0,10,0.56
2013-5-7,71.6,61.4,53.9,54.6,49.4,44.2,89,67,40,29.98,29.90,11,0,11,0.24
2013-5-8,71.8,62.8,55.3,52.7,48.5,43.7,83,62,41,30.01,29.95,13,1,13,0.00
2013-5-9,77.4,66.1,51.6,56.0,51.7,46.3,84,62,41,30.01,29.94,12,1,12,0.05
2013-5-10,81.8,66.8,55.6,59.9,55.2,51.9,90,69,42,30.00,29.90,10,1,10,0.01
2013-5-11,92.9,72.7,56.6,60.0,55.7,51.4,88,60,26,29.96,29.86,8,0,8,0.00
2013-5-12,96.3,79.7,59.3,61.1,52.8,39.8,84,46,19,29.92,29.75,10,0,10,0.00
2013-5-13,98.7,83.9,66.3,57.0,46.8,27.3,58,32,12,29.81,29.71,15,1,15,0.00
2013-5-14,85.5,71.6,59.5,54.7,48.8,34.5,71,47,24,29.88,29.72,12,1,12,0.00
2013-5-15,79.2,66.2,57.0,55.1,52.4,49.1,83,63,39,29.94,29.85,12,1,12,0.00
2013-5-16,75.6,64.3,58.9,54.7,52.8,50.8,80,67,47,29.89,29.79,12,0,12,0.00
2013-5-17,75.1,65.9,58.9,55.7,53.1,51.0,78,64,46,29.89,29.77,7,1,14,0.00
2013-5-18,78.3,66.4,57.3,55.1,52.1,49.1,82,62,40,29.94,29.86,12,1,12,0.00
2013-5-19,80.3,66.9,55.1,56.2,53.2,48.8,84,64,42,29.89,29.77,10,1,10,0.00
2013-5-20,88.6,71.0,55.9,58.1,53.9,49.9,86,59,27,29.83,29.77,11,1,11,0.00
2013-5-21,85.9,69.9,60.7,59.1,57.0,53.1,84,67,34,29.82,29.72,11,1,11,0.00
2013-5-22,78.3,67.1,60.9,56.9,54.3,50.9,84,65,43,29.73,29.65,13,1,13,0.00
2013-5-23,74.4,64.9,57.2,53.2,50.3,46.3,78,61,42,29.84,29.68,12,1,12,0.00
2013-5-24,75.4,64.6,55.0,55.0,49.8,46.4,75,60,42,29.89,29.80,12,1,12,0.00
2013-5-25,77.2,63.8,54.2,53.8,50.6,47.2,85,64,40,29.93,29.85,11,1,11,0.00
2013-5-26,77.2,64.2,54.1,54.4,51.2,49.1,86,65,43,29.95,29.87,13,1,13,0.00
2013-5-27,79.9,66.3,56.2,56.0,53.1,48.7,85,65,42,29.91,29.76,12,1,12,0.00
2013-5-28,81.4,68.5,58.6,57.6,54.4,49.4,83,63,34,29.76,29.62,13,1,13,0.00
2013-5-29,85.9,71.1,60.1,59.0,54.9,46.9,86,61,27,29.68,29.58,11,1,11,0.00
2013-5-30,84.5,70.7,58.0,61.1,56.8,53.2,87,64,37,29.75,29.62,11,1,11,0.00
2013-5-31,84.1,70.2,62.1,59.7,57.3,55.9,83,66,39,29.79,29.68,11,1,11,0.00
2013-6-1,89.7,71.6,60.1,61.3,57.9,54.9,87,65,35,29.73,29.62,10,1,10,0.00
2013-6-2,81.1,69.5,62.9,61.3,57.9,54.6,84,68,44,29.70,29.61,12,1,12,0.00
2013-6-3,81.6,67.5,61.3,56.4,54.8,53.3,77,65,39,29.79,29.66,12,1,12,0.00
2013-6-4,79.2,66.7,60.7,56.5,54.8,52.8,81,67,42,29.88,29.74,11,1,11,0.00
2013-6-5,78.1,66.1,59.2,56.5,54.7,52.9,82,68,46,29.91,29.80,11,1,11,0.00
2013-6-6,79.2,65.7,57.3,59.2,55.5,52.1,88,72,46,29.85,29.76,13,1,13,0.00
2013-6-7,80.9,66.3,58.9,59.2,56.0,54.4,86,71,46,29.80,29.67,11,1,11,0.00
2013-6-8,81.8,68.3,60.7,58.6,56.5,55.1,84,68,42,29.79,29.65,12,1,12,0.00
2013-6-9,81.8,68.2,60.9,58.2,55.9,53.4,79,66,42,29.82,29.74,12,1,12,0.00
2013-6-10,81.1,68.3,60.9,55.4,53.5,49.6,80,62,35,29.86,29.75,11,1,12,0.00
2013-6-11,85.5,70.2,57.0,60.5,55.2,49.1,88,62,32,29.81,29.76,12,0,12,0.00
2013-6-12,80.9,67.8,61.6,59.2,57.2,55.1,85,70,46,29.91,29.79,12,1,12,0.00
2013-6-13,84.0,69.0,60.5,57.4,55.9,53.8,81,65,39,29.91,29.79,10,1,10,0.00
2013-6-14,83.6,68.3,58.1,59.0,55.3,52.5,87,66,37,29.82,29.73,15,1,15,0.00
2013-6-15,81.1,68.1,60.5,56.1,54.3,52.2,80,63,38,29.87,29.74,10,1,10,0.00
2013-6-16,83.0,68.4,59.5,56.2,54.4,52.4,83,64,36,29.94,29.83,12,1,12,0.00
2013-6-17,84.5,69.4,56.9,59.9,54.9,51.5,88,63,34,29.87,29.76,11,1,11,0.00
2013-6-18,84.7,69.7,58.0,60.7,55.0,50.6,87,63,38,29.79,29.72,11,1,11,0.00
2013-6-19,81.4,69.5,56.5,57.0,51.4,46.2,83,55,32,29.75,29.67,12,1,12,0.00
2013-6-20,84.0,70.8,57.8,59.8,51.1,43.0,87,53,27,29.73,29.66,13,1,13,0.00
2013-6-21,84.9,71.5,57.6,58.2,52.2,44.5,82,53,31,29.78,29.69,12,1,12,0.00
2013-6-22,83.2,70.5,58.1,58.9,54.7,50.7,83,60,37,29.78,29.70,11,1,11,0.00
2013-6-23,80.3,68.4,61.6,57.7,55.6,53.3,80,65,40,29.76,29.68,11,1,11,0.00
2013-6-24,78.6,67.6,61.6,56.8,55.8,54.7,80,67,45,29.84,29.69,11,0,11,0.00
2013-6-25,80.1,69.7,61.5,59.8,57.9,54.9,84,68,48,29.90,29.79,13,1,13,0.00
2013-6-26,91.0,76.2,61.5,62.2,58.3,55.6,85,57,34,29.84,29.77,10,1,10,0.00
2013-6-27,97.5,80.1,64.5,63.6,58.7,56.1,82,52,27,29.88,29.82,11,1,11,0.00
2013-6-28,96.8,80.8,65.5,63.9,58.5,54.8,82,51,26,29.83,29.72,12,1,12,0.00
2013-6-29,73.0,72.4,71.3,59.2,58.8,58.5,64,62,61,29.72,29.69,0,0,0,0.00
2013-6-30,99.4,81.1,70.1,63.4,59.5,56.3,68,49,26,29.67,29.53,9,1,12,0.00
2013-7-1,99.9,80.2,67.6,63.2,60.0,51.3,77,54,20,29.74,29.62,9,0,9,0.00
2013-7-2,89.9,76.5,66.8,64.8,61.4,57.9,82,62,37,29.84,29.70,14,1,14,0.00
2013-7-3,90.3,74.4,64.0,65.4,60.0,56.0,88,64,35,29.80,29.68,5,0,10,0.00
2013-7-4,91.6,74.4,62.9,64.0,58.9,53.0,86,62,28,29.70,29.61,6,1,10,0.00
2013-7-5,85.9,71.9,63.5,61.9,59.3,54.9,85,67,35,29.72,29.62,4,0,10,0.00
2013-7-6,89.0,73.1,64.7,62.9,60.0,58.0,83,66,36,29.70,29.61,11,1,11,0.00
2013-7-7,86.3,73.1,64.3,63.4,59.9,57.5,86,66,40,29.73,29.63,13,1,13,0.00
2013-7-8,92.1,75.4,60.7,62.2,57.5,52.8,86,58,27,29.77,29.71,9,1,10,0.00
2013-7-9,95.4,78.5,63.9,60.6,57.9,54.1,74,52,27,29.84,29.73,11,1,11,0.00
2013-7-10,82.4,74.7,68.1,61.8,59.3,55.0,75,60,41,29.85,29.76,7,0,7,0.00
2013-7-11,78.6,72.8,68.3,64.7,62.7,60.9,85,71,59,29.84,29.76,5,0,5,0.01
2013-7-12,90.3,74.3,65.2,65.0,60.5,54.4,86,65,39,29.80,29.72,10,1,10,0.00
2013-7-13,88.0,72.6,61.2,62.0,57.9,53.3,87,63,33,29.83,29.74,10,1,10,0.00
2013-7-14,90.7,73.8,62.1,62.1,57.1,52.5,85,60,32,29.82,29.69,10,0,10,0.00
2013-7-15,89.3,75.4,63.1,62.9,54.6,45.2,83,52,28,29.73,29.67,10,1,10,0.00
2013-7-16,90.3,72.5,55.9,53.2,47.6,34.3,76,46,15,29.85,29.71,11,1,11,0.00
2013-7-17,91.4,74.0,56.9,49.3,44.6,37.9,66,40,16,29.90,29.83,7,1,11,0.00
2013-7-18,90.3,72.3,57.5,58.4,52.0,47.6,78,52,25,29.86,29.75,13,1,13,0.00
2013-7-19,89.9,72.9,59.8,59.8,56.5,52.9,83,59,31,29.78,29.71,12,0,12,0.00
2013-7-20,89.3,71.8,64.3,62.8,59.9,57.8,83,68,39,29.77,29.67,9,1,9,0.00
2013-7-21,76.0,70.2,65.2,62.2,60.6,58.9,83,72,61,29.80,29.66,6,0,6,0.00
2013-7-22,89.0,75.1,66.3,64.8,60.8,57.8,85,64,39,29.84,29.77,6,1,12,0.00
2013-7-23,85.5,73.3,63.9,62.4,57.9,51.7,84,61,35,29.90,29.81,10,1,10,0.00
2013-7-24,85.3,71.6,61.8,63.0,57.8,54.6,87,64,40,29.84,29.78,13,1,13,0.00
2013-7-25,88.6,72.6,60.5,60.6,57.6,55.3,85,63,37,29.86,29.78,11,1,11,0.00
2013-7-26,84.9,75.5,67.1,62.0,59.1,57.0,79,58,44,29.96,29.84,7,0,7,0.00
2013-7-27,88.0,72.5,62.1,61.5,57.9,55.7,83,63,38,29.89,29.76,11,1,11,0.00
2013-7-28,83.6,68.8,61.2,61.2,57.5,54.9,86,69,42,29.82,29.73,11,1,11,0.00
2013-7-29,84.1,70.3,61.6,58.5,55.7,53.2,83,63,36,29.92,29.77,10,1,12,0.00
2013-7-30,83.2,68.8,58.0,59.3,54.9,52.6,86,64,38,30.01,29.91,12,1,12,0.00
2013-7-31,79.4,66.4,58.4,58.7,55.0,52.1,86,69,45,30.01,29.90,12,1,12,0.00
2013-8-1,81.8,67.2,59.2,58.2,55.3,53.2,84,68,40,29.94,29.80,7,1,10,0.00
2013-8-2,84.5,69.2,58.7,59.2,56.2,52.9,86,66,38,29.86,29.77,8,1,10,0.00
2013-8-3,87.0,69.5,59.9,59.9,57.1,54.4,86,68,37,29.89,29.80,12,1,12,0.00
2013-8-4,84.0,68.8,58.1,61.9,56.4,53.3,88,68,39,29.92,29.81,11,1,11,0.00
2013-8-5,87.2,69.2,56.3,62.0,53.6,43.5,90,63,26,29.90,29.81,12,1,12,0.00
2013-8-6,83.8,69.6,58.7,59.0,54.7,50.0,85,63,32,29.92,29.81,12,1,12,0.00
2013-8-7,84.7,68.0,57.3,60.1,54.6,49.8,88,66,31,29.98,29.87,10,1,10,0.00
2013-8-8,85.7,69.1,56.0,60.3,54.2,49.3,87,62,31,29.88,29.79,11,1,11,0.00
2013-8-9,82.8,67.7,56.5,58.5,54.3,48.6,87,65,32,29.86,29.77,11,1,11,0.00
2013-8-10,82.8,67.8,57.3,58.7,55.0,51.6,86,66,40,29.93,29.83,11,1,11,0.00
2013-8-11,86.3,69.0,56.5,60.1,54.4,47.0,88,64,31,29.88,29.79,10,1,11,0.00
2013-8-12,87.0,69.8,57.5,60.4,56.1,52.7,87,65,35,29.86,29.78,12,1,12,0.00
2013-8-13,88.4,71.8,59.2,61.6,57.3,53.7,87,64,36,29.87,29.74,9,1,10,0.00
2013-8-14,91.8,73.7,59.8,64.1,58.5,55.1,90,63,33,29.81,29.71,12,1,12,0.00
2013-8-15,93.6,74.8,60.7,63.1,57.4,51.3,88,60,27,29.81,29.73,9,0,9,0.00
2013-8-16,92.1,76.6,62.9,62.9,55.4,43.6,83,53,24,29.82,29.75,7,0,7,0.00
2013-8-17,91.0,74.6,62.9,59.0,54.8,49.2,78,54,25,29.81,29.72,10,1,10,0.00
2013-8-20,89.7,72.1,61.5,63.2,57.8,54.1,89,65,30,29.80,29.72,4,0,10,0.00
2013-8-21,91.2,75.0,60.4,60.9,54.0,41.8,85,53,25,29.78,29.72,6,0,10,0.00
2013-8-22,94.3,77.1,61.2,56.1,49.9,39.6,74,45,17,29.78,29.68,4,0,10,0.00
2013-8-23,94.5,76.7,60.5,54.2,49.5,43.7,64,42,18,29.71,29.62,4,1,10,0.00
2013-8-24,90.7,73.2,57.2,56.2,50.8,42.6,78,49,25,29.74,29.63,4,1,10,0.00
2013-8-25,92.9,74.8,58.4,57.5,50.0,43.0,77,47,18,29.79,29.69,7,1,11,0.00
2013-8-26,95.6,78.6,66.1,58.5,48.2,44.6,53,35,27,29.78,29.65,5,0,12,0.00
2013-8-27,94.3,79.8,71.5,59.0,53.6,47.0,56,42,24,29.68,29.60,13,0,13,0.00
2013-8-28,96.3,82.1,67.9,57.6,51.5,40.0,63,38,21,29.72,29.60,10,1,10,0.00
2013-8-29,100.4,97.1,84.3,54.7,49.2,43.3,34,20,17,29.75,29.72,10,1,11,0.00
2013-8-30,97.5,95.6,92.7,63.6,62.2,60.8,37,33,31,29.77,29.73,11,2,11,0.00
2013-8-31,93.8,86.7,77.2,67.2,65.8,63.2,66,51,39,29.79,29.71,12,1,12,0.00
2013-9-1,91.8,79.7,72.5,66.6,64.2,62.0,74,60,42,29.78,29.69,11,1,11,0.00
2013-9-2,93.2,79.4,68.1,67.7,63.6,61.1,83,61,35,29.77,29.66,10,1,10,0.00
2013-9-3,98.0,82.9,70.4,66.5,61.3,52.5,79,54,22,29.73,29.67,11,1,11,0.00
2013-9-4,99.7,91.5,77.6,58.5,54.5,49.1,48,30,21,29.73,29.67,11,1,11,0.00
2013-9-5,100.4,85.3,70.9,59.8,53.3,42.1,63,37,17,29.71,29.65,11,0,11,0.00
2013-9-6,102.0,83.4,70.6,55.1,50.3,41.2,54,35,17,29.70,29.62,9,0,9,0.00
2013-9-7,101.2,83.2,70.1,56.2,50.5,39.0,52,35,17,29.70,29.63,11,1,11,0.00
2013-9-8,91.6,76.3,64.8,57.6,52.9,45.7,67,46,26,29.70,29.62,10,1,10,0.00
2013-9-9,85.3,71.6,63.1,59.8,56.0,48.2,79,61,31,29.68,29.59,11,0,11,0.00
2013-9-10,84.9,68.0,58.3,61.1,55.7,53.5,87,68,36,29.83,29.66,10,0,10,0.00
2013-9-11,83.0,68.0,57.8,60.5,55.9,52.9,87,68,39,29.89,29.80,12,0,12,0.00
2013-9-12,89.9,71.7,57.6,61.8,54.3,46.8,88,59,24,29.82,29.69,10,0,10,0.00
2013-9-13,90.5,74.6,59.8,57.7,52.3,46.0,73,50,24,29.69,29.53,11,0,11,0.00
2013-9-14,93.4,76.8,62.7,59.2,53.6,47.2,73,48,22,29.57,29.48,9,0,9,0.00
2013-9-15,95.9,77.2,62.1,59.5,54.3,50.3,76,48,25,29.61,29.51,9,0,9,0.00
2013-9-16,94.5,77.1,62.7,57.8,53.4,47.2,72,48,22,29.68,29.58,12,1,12,0.00
2013-9-17,86.3,69.5,58.7,60.5,56.1,52.0,84,65,35,29.69,29.60,9,1,9,0.00
2013-9-18,81.2,68.2,60.9,59.5,56.7,52.9,87,69,40,29.70,29.60,10,1,10,0.00
2013-9-19,85.3,68.4,58.7,61.1,57.1,53.6,88,69,41,29.71,29.62,11,0,11,0.00
2013-9-20,75.4,67.2,63.5,60.1,58.6,57.3,83,74,56,29.78,29.66,12,0,12,0.00
2013-9-21,80.1,67.2,60.7,58.6,56.3,53.2,84,70,41,29.80,29.68,13,0,13,0.00
2013-9-22,78.8,66.5,55.4,58.6,50.9,42.3,88,61,30,29.73,29.66,11,1,11,0.00
2013-9-23,94.3,73.2,54.8,51.4,42.9,32.6,75,42,13,29.76,29.68,12,0,12,0.00
2013-9-24,88.4,72.8,58.1,48.6,43.3,36.0,60,38,18,29.79,29.71,10,0,10,0.00
2013-9-25,79.9,67.7,57.2,57.9,52.9,45.8,81,60,40,29.71,29.58,13,1,13,0.00
2013-9-26,78.1,66.7,59.3,53.3,41.4,26.5,74,44,16,29.77,29.58,20,1,20,0.00
2013-9-27,84.3,67.0,52.3,46.9,37.0,28.9,67,38,16,29.89,29.75,16,0,16,0.00
2013-9-28,90.7,70.8,55.1,34.6,27.6,20.1,42,22,9,29.93,29.85,12,0,12,0.00
2013-9-29,89.9,70.4,54.5,42.3,33.7,20.9,46,29,9,29.95,29.85,10,0,10,0.00
2013-9-30,85.9,69.7,54.8,48.9,39.6,28.4,60,36,16,29.88,29.74,9,0,9,0.00
2013-10-1,85.7,69.6,55.7,57.5,50.6,43.9,77,54,25,29.82,29.73,9,1,9,0.00
2013-10-2,79.9,66.2,60.9,56.9,55.6,51.5,84,70,40,29.87,29.75,11,0,11,0.00
2013-10-3,76.8,65.4,58.9,58.7,55.2,53.0,87,71,47,29.82,29.71,12,1,12,0.00
2013-10-4,90.1,71.8,59.3,57.7,42.1,6.1,83,46,6,29.92,29.76,9,0,9,0.00
2013-10-5,92.5,73.4,57.5,31.6,21.2,12.9,30,16,6,30.00,29.90,9,0,9,0.00
2013-10-6,94.3,72.5,55.3,27.3,20.3,6.1,31,16,5,29.99,29.82,14,0,14,0.00
2013-10-7,88.0,69.3,58.0,49.7,32.1,20.2,69,29,10,29.87,29.77,12,0,12,0.00
2013-10-8,76.8,63.3,52.6,56.1,50.7,45.3,84,65,38,29.82,29.68,10,0,10,0.00
2013-10-9,61.0,58.0,51.6,52.3,47.7,42.0,78,69,59,29.71,29.60,12,0,12,0.04
2013-10-10,70.3,58.0,48.5,47.5,43.7,37.0,80,61,31,29.94,29.71,11,1,11,0.00
2013-10-11,78.1,60.5,47.7,50.8,45.9,41.9,86,62,30,29.97,29.85,9,0,9,0.00
2013-10-12,78.8,62.0,49.4,52.9,48.1,43.3,86,64,31,29.89,29.79,10,0,10,0.00
2013-10-13,73.9,62.4,55.4,53.9,50.6,47.1,84,67,40,29.94,29.81,11,0,11,0.00
2013-10-14,66.3,53.6,49.5,56.1,48.8,45.6,90,84,63,29.94,29.89,2,0,2,0.00
2013-10-15,84.9,70.1,61.2,32.3,30.1,25.8,31,23,12,29.92,29.77,7,0,7,0.00
2013-10-16,86.7,68.2,53.2,34.7,26.2,20.6,43,23,10,29.96,29.86,12,0,12,0.00
2013-10-17,84.0,66.5,53.5,43.8,31.7,23.7,54,30,12,29.94,29.82,12,0,12,0.00
2013-10-18,87.2,67.1,51.4,48.7,40.6,31.5,61,42,15,29.92,29.82,10,0,10,0.00
2013-10-19,89.9,68.6,53.5,49.6,38.0,22.0,65,37,10,29.92,29.83,9,0,9,0.00
2013-10-20,81.6,63.8,50.7,54.6,45.9,38.4,79,54,29,29.88,29.79,9,0,9,0.00
2013-10-21,80.7,62.7,51.7,57.7,50.2,47.1,90,67,33,29.89,29.80,9,0,9,0.00
2013-10-22,80.1,62.1,50.1,54.8,50.1,43.1,84,67,37,29.91,29.80,6,0,6,0.00
2013-10-23,73.7,60.9,54.7,56.2,53.0,49.5,89,76,49,29.88,29.78,12,0,12,0.00
2013-10-24,73.3,61.9,55.1,53.6,51.9,49.0,82,71,47,29.97,29.84,10,0,10,0.00
2013-10-25,77.2,61.3,52.0,56.9,52.5,48.3,89,75,45,30.05,29.91,5,0,9,0.00
2013-10-26,82.4,63.9,51.4,58.1,51.9,46.6,90,69,31,30.00,29.85,6,0,6,0.01
2013-10-27,76.3,60.8,51.0,57.0,51.2,43.4,81,72,46,29.86,29.72,9,0,9,0.00
2013-10-28,68.1,59.1,54.4,53.0,47.8,42.9,82,67,43,29.84,29.68,17,1,17,0.01
2013-10-29,66.1,56.2,46.1,49.5,44.9,41.2,86,67,44,29.92,29.83,11,0,11,0.00
2013-10-30,72.5,56.9,45.8,51.8,43.6,38.1,89,64,29,29.98,29.91,10,0,10,0.00
2013-10-31,80.7,61.1,46.0,44.9,36.7,30.5,74,46,17,30.02,29.91,8,0,8,0.00
2013-11-1,87.2,66.7,50.2,38.3,31.3,25.2,54,30,11,30.04,29.85,7,0,7,0.00
2013-11-2,84.1,66.7,53.2,54.4,34.5,25.0,81,35,12,29.87,29.74,12,0,12,0.00
2013-11-3,72.1,61.6,55.4,54.4,51.0,47.3,82,69,43,29.84,29.71,9,0,9,0.00
2013-11-4,66.6,59.6,52.2,52.8,49.8,47.0,84,71,53,29.85,29.68,6,0,6,0.00
2013-11-5,76.8,59.5,46.1,53.7,37.8,24.9,90,53,15,30.07,29.84,10,0,10,0.01
2013-11-6,82.2,63.5,48.5,30.1,21.2,11.1,40,22,7,30.14,30.00,6,0,6,0.00
2013-11-7,86.3,65.3,52.8,30.1,22.9,11.0,37,21,6,30.05,29.87,6,0,6,0.00
2013-11-8,58.9,54.5,51.1,25.9,23.5,21.7,36,30,25,29.94,29.85,1,0,1,0.00
2013-11-9,78.8,65.2,46.5,46.9,39.1,22.0,79,44,13,30.01,29.87,9,0,9,0.00
2013-11-10,84.1,60.7,48.8,52.9,36.3,19.0,70,44,9,30.04,29.92,11,0,11,0.00
2013-11-11,81.6,62.0,47.4,46.1,38.5,27.9,70,47,16,30.05,29.93,6,0,6,0.00
2013-11-12,78.8,63.5,52.3,45.2,38.5,32.4,68,42,20,30.09,29.95,4,0,4,0.00
2013-11-13,92.5,71.7,56.2,41.5,30.2,20.0,48,25,9,29.95,29.77,6,0,6,0.00
2013-11-14,91.2,70.9,58.1,46.8,28.9,22.3,55,24,9,29.82,29.61,9,0,9,0.00
2013-11-15,69.6,61.4,57.0,53.5,51.5,45.2,82,71,51,29.65,29.56,11,0,11,0.00
2013-11-16,65.0,58.5,53.3,52.1,48.4,43.8,84,70,49,29.85,29.64,9,0,9,0.00
2013-11-17,70.4,58.6,50.4,51.6,47.7,44.5,84,69,40,30.01,29.84,10,0,10,0.00
2013-11-18,69.3,57.3,48.2,56.0,48.6,44.3,90,74,50,30.08,29.97,9,0,9,0.00
2013-11-19,66.0,59.4,54.2,52.0,49.0,47.2,79,69,53,30.00,29.86,7,0,7,0.00
2013-11-20,64.2,58.8,54.5,53.8,50.6,47.2,86,75,58,29.88,29.78,6,0,6,0.04
2013-11-21,62.6,57.7,53.3,58.4,53.0,48.5,92,85,69,29.80,29.72,5,0,8,0.41
2013-11-22,63.4,56.5,49.2,48.6,37.6,31.3,86,52,33,29.87,29.73,13,1,13,0.01
2013-11-23,65.0,54.5,46.5,42.6,38.8,33.0,77,58,31,30.03,29.85,6,0,6,0.00
2013-11-24,67.9,53.8,44.5,45.1,38.9,35.7,80,60,31,30.15,30.01,9,0,9,0.00
2013-11-25,72.5,55.7,44.2,44.5,39.2,33.9,79,58,26,30.18,30.09,7,0,7,0.00
2013-11-26,77.2,61.2,46.4,42.6,35.4,27.9,72,43,17,30.15,29.92,6,0,6,0.00
2013-11-27,76.1,63.5,54.1,38.5,33.7,28.4,53,34,19,29.93,29.77,12,0,12,0.00
2013-11-28,70.8,60.1,52.8,43.5,36.7,30.4,64,43,25,29.97,29.76,11,0,11,0.00
2013-11-29,60.5,56.0,51.0,54.1,49.0,41.3,86,77,64,30.13,29.95,10,0,10,0.18
2013-11-30,76.0,58.9,47.6,53.1,44.8,41.5,89,64,32,30.13,29.99,9,0,9,0.00
2013-12-1,79.8,61.3,49.6,42.2,35.3,27.9,66,42,15,30.15,30.02,6,0,6,0.00
2013-12-2,75.6,58.6,48.3,36.9,31.8,24.6,54,39,17,30.03,29.80,5,0,5,0.00
2013-12-3,65.2,54.9,44.9,50.1,43.0,32.7,76,64,51,29.81,29.66,9,0,9,0.00
2013-12-4,57.2,46.3,38.8,42.0,35.4,21.7,79,68,27,29.85,29.67,4,0,4,0.00